DAL32 KDFW-KATL

Flight info

Callsign DAL32
Flight time 1h 34m
Altitude 31000
Route TRYTN4 LOOSE MEMFS HUTCC KNSAW RUSSA GLAVN2
Aircraft A321/M-SDE3FGHIRWY/LB1

Departure

Time 2026-05-03 22:06
Airport Dallas Fort Worth International Airport (KDFW)

Arrival

Time 2026-05-03 23:41
Airport Hartsfield Jackson Atlanta International Airport (KATL)
Time Latitude Longitude Altitude Speed Heading
2026-05-03 21:31 32.89036 -97.03513 613 ft 0 kts 270°
2026-05-03 21:53 32.89036 -97.03505 613 ft 2 kts 271°
2026-05-03 21:54 32.89035 -97.03487 613 ft 2 kts 270°
2026-05-03 21:54 32.89035 -97.03470 613 ft 2 kts 270°
2026-05-03 21:54 32.89033 -97.03451 613 ft 2 kts 305°
2026-05-03 21:54 32.89022 -97.03440 613 ft 2 kts 340°
2026-05-03 21:55 32.89011 -97.03438 613 ft 0 kts
2026-05-03 21:55 32.89004 -97.03439 613 ft 1 kts
2026-05-03 21:55 32.89003 -97.03439 613 ft 0 kts
2026-05-03 21:58 32.89008 -97.03439 613 ft 1 kts
2026-05-03 21:58 32.89024 -97.03426 613 ft 3 kts 51°
2026-05-03 21:58 32.89034 -97.03384 613 ft 6 kts 86°
2026-05-03 21:59 32.89057 -97.03329 613 ft 9 kts 30°
2026-05-03 21:59 32.89133 -97.03320 613 ft 12 kts
2026-05-03 21:59 32.89229 -97.03318 613 ft 15 kts
2026-05-03 21:59 32.89342 -97.03317 613 ft 17 kts
2026-05-03 22:00 32.89466 -97.03316 613 ft 17 kts
2026-05-03 22:00 32.89590 -97.03315 613 ft 17 kts
2026-05-03 22:00 32.89714 -97.03314 613 ft 17 kts
2026-05-03 22:00 32.89837 -97.03313 613 ft 17 kts
2026-05-03 22:01 32.89962 -97.03312 613 ft 17 kts
2026-05-03 22:01 32.90084 -97.03311 613 ft 17 kts
2026-05-03 22:01 32.90206 -97.03310 613 ft 17 kts
2026-05-03 22:01 32.90329 -97.03310 613 ft 17 kts
2026-05-03 22:02 32.90451 -97.03308 613 ft 17 kts 359°
2026-05-03 22:02 32.90576 -97.03307 613 ft 18 kts
2026-05-03 22:02 32.90704 -97.03306 613 ft 18 kts
2026-05-03 22:02 32.90833 -97.03304 613 ft 18 kts
2026-05-03 22:03 32.90961 -97.03303 613 ft 18 kts
2026-05-03 22:03 32.91083 -97.03268 613 ft 18 kts
2026-05-03 22:03 32.91212 -97.03266 613 ft 18 kts 359°
2026-05-03 22:03 32.91339 -97.03267 613 ft 18 kts
2026-05-03 22:04 32.91468 -97.03266 613 ft 18 kts
2026-05-03 22:04 32.91550 -97.03241 613 ft 12 kts 54°
2026-05-03 22:04 32.91561 -97.03142 613 ft 12 kts 91°
2026-05-03 22:04 32.91560 -97.03037 613 ft 11 kts 90°
2026-05-03 22:05 32.91559 -97.02991 613 ft 1 kts 111°
2026-05-03 22:05 32.91542 -97.02984 613 ft 4 kts 173°
2026-05-03 22:05 32.91487 -97.02984 612 ft 17 kts 180°
2026-05-03 22:05 32.91124 -97.02987 613 ft 85 kts 181°
2026-05-03 22:06 32.90331 -97.02993 613 ft 142 kts 180°
2026-05-03 22:06 32.89236 -97.03009 975 ft 157 kts 183°
2026-05-03 22:06 32.88182 -97.03081 1669 ft 152 kts 186°
2026-05-03 22:06 32.87119 -97.03125 2231 ft 156 kts 179°
2026-05-03 22:07 32.86019 -97.02872 2675 ft 167 kts 165°
2026-05-03 22:07 32.84916 -97.02409 3041 ft 170 kts 163°
2026-05-03 22:07 32.83799 -97.01923 3371 ft 176 kts 163°
2026-05-03 22:07 32.82601 -97.01404 3620 ft 189 kts 163°
2026-05-03 22:08 32.81298 -97.00839 3838 ft 207 kts 162°
2026-05-03 22:08 32.79894 -97.00227 4133 ft 222 kts 162°
2026-05-03 22:08 32.78468 -96.99290 4413 ft 243 kts 137°
2026-05-03 22:08 32.77530 -96.97500 4785 ft 262 kts 113°
2026-05-03 22:09 32.76907 -96.95390 5208 ft 275 kts 108°
2026-05-03 22:09 32.76546 -96.93106 5825 ft 282 kts 96°
2026-05-03 22:09 32.76541 -96.90762 6507 ft 285 kts 90°
2026-05-03 22:10 32.76749 -96.86015 7857 ft 291 kts 88°
2026-05-03 22:10 32.76929 -96.83604 8546 ft 294 kts 82°
2026-05-03 22:10 32.77349 -96.81248 9239 ft 296 kts 74°
2026-05-03 22:10 32.77941 -96.78893 9926 ft 298 kts 72°
2026-05-03 22:11 32.78564 -96.76541 10498 ft 305 kts 72°
2026-05-03 22:11 32.79230 -96.74033 10811 ft 321 kts 72°
2026-05-03 22:11 32.79938 -96.71340 11108 ft 337 kts 72°
2026-05-03 22:11 32.80674 -96.68516 11480 ft 349 kts 72°
2026-05-03 22:12 32.81447 -96.65540 12092 ft 354 kts 72°
2026-05-03 22:12 32.82208 -96.62600 12759 ft 355 kts 72°
2026-05-03 22:12 32.82983 -96.59596 13426 ft 357 kts 72°
2026-05-03 22:12 32.83792 -96.56456 14059 ft 360 kts 72°
2026-05-03 22:13 32.84605 -96.53296 14651 ft 365 kts 72°
2026-05-03 22:13 32.85432 -96.50078 15220 ft 369 kts 71°
2026-05-03 22:13 32.86275 -96.46791 15808 ft 373 kts 71°
2026-05-03 22:13 32.87108 -96.43542 16382 ft 376 kts 71°
2026-05-03 22:14 32.87956 -96.40231 16952 ft 380 kts 71°
2026-05-03 22:14 32.88854 -96.36723 17524 ft 384 kts 70°
2026-05-03 22:14 32.89710 -96.33477 18013 ft 387 kts 69°
2026-05-03 22:14 32.90714 -96.30249 18530 ft 390 kts 66°
2026-05-03 22:15 32.91799 -96.26908 19027 ft 394 kts 66°
2026-05-03 22:15 32.92900 -96.23534 19504 ft 397 kts 66°
2026-05-03 22:15 32.94019 -96.20104 19992 ft 401 kts 66°
2026-05-03 22:15 32.95140 -96.16653 20453 ft 405 kts 65°
2026-05-03 22:16 32.96282 -96.13133 20942 ft 408 kts 65°
2026-05-03 22:16 32.97431 -96.09577 21420 ft 411 kts 65°
2026-05-03 22:16 32.98575 -96.06034 21878 ft 414 kts 65°
2026-05-03 22:16 32.99750 -96.02389 22365 ft 417 kts 65°
2026-05-03 22:17 33.00923 -95.98753 22810 ft 420 kts 65°
2026-05-03 22:17 33.02117 -95.95037 23245 ft 424 kts 65°
2026-05-03 22:17 33.03317 -95.91302 23659 ft 427 kts 64°
2026-05-03 22:17 33.04555 -95.87445 24054 ft 432 kts 65°
2026-05-03 22:18 33.05763 -95.83677 24465 ft 435 kts 64°
2026-05-03 22:18 33.07001 -95.79826 24856 ft 438 kts 64°
2026-05-03 22:18 33.08250 -95.75946 25224 ft 442 kts 64°
2026-05-03 22:18 33.09492 -95.72079 25593 ft 445 kts 64°
2026-05-03 22:19 33.10688 -95.68343 25937 ft 448 kts 64°
2026-05-03 22:19 33.11920 -95.64497 26269 ft 451 kts 64°
2026-05-03 22:19 33.13161 -95.60607 26681 ft 453 kts 64°
2026-05-03 22:19 33.14433 -95.56628 27034 ft 456 kts 64°
2026-05-03 22:20 33.15700 -95.52651 27388 ft 459 kts 64°
2026-05-03 22:20 33.17012 -95.48528 27735 ft 461 kts 64°
2026-05-03 22:20 33.18313 -95.44437 28042 ft 465 kts 64°
2026-05-03 22:20 33.19641 -95.40255 28390 ft 467 kts 63°
2026-05-03 22:21 33.20989 -95.35995 28705 ft 470 kts 63°
2026-05-03 22:21 33.22224 -95.32092 29006 ft 472 kts 64°
2026-05-03 22:21 33.23483 -95.28116 29270 ft 475 kts 64°
2026-05-03 22:21 33.24784 -95.24001 29566 ft 477 kts 64°
2026-05-03 22:22 33.26080 -95.19891 29882 ft 478 kts 64°
2026-05-03 22:22 33.27377 -95.15762 30260 ft 478 kts 64°
2026-05-03 22:22 33.28666 -95.11658 30633 ft 477 kts 63°
2026-05-03 22:22 33.29945 -95.07584 30980 ft 477 kts 63°
2026-05-03 22:23 33.31309 -95.03229 31360 ft 477 kts 63°
2026-05-03 22:23 33.32639 -94.98981 31735 ft 476 kts 63°
2026-05-03 22:23 33.33931 -94.94852 32086 ft 476 kts 63°
2026-05-03 22:23 33.35211 -94.90752 32453 ft 475 kts 63°
2026-05-03 22:24 33.36497 -94.86628 32792 ft 474 kts 63°
2026-05-03 22:24 33.37780 -94.82510 33127 ft 474 kts 63°
2026-05-03 22:24 33.39070 -94.78368 33402 ft 475 kts 63°
2026-05-03 22:24 33.40354 -94.74240 33636 ft 477 kts 62°
2026-05-03 22:25 33.41638 -94.70099 33883 ft 478 kts 63°
2026-05-03 22:25 33.42924 -94.65947 34160 ft 478 kts 62°
2026-05-03 22:25 33.44219 -94.61755 34422 ft 479 kts 62°
2026-05-03 22:25 33.45504 -94.57597 34702 ft 479 kts 62°
2026-05-03 22:26 33.46794 -94.53413 34939 ft 480 kts 62°
2026-05-03 22:26 33.48085 -94.49232 35044 ft 481 kts 62°
2026-05-03 22:26 33.49386 -94.45008 35039 ft 482 kts 62°
2026-05-03 22:27 33.51950 -94.36645 35048 ft 481 kts 62°
2026-05-03 22:27 33.54417 -94.28580 35039 ft 480 kts 63°
2026-05-03 22:28 33.56983 -94.20092 35046 ft 481 kts 63°
2026-05-03 22:28 33.59497 -94.11634 35040 ft 479 kts 63°
2026-05-03 22:29 33.62012 -94.03169 35037 ft 479 kts 63°
2026-05-03 22:29 33.64510 -93.94741 35040 ft 477 kts 64°
2026-05-03 22:30 33.67006 -93.86299 35039 ft 478 kts 64°
2026-05-03 22:30 33.69492 -93.77866 35044 ft 478 kts 64°
2026-05-03 22:31 33.71972 -93.69418 35046 ft 477 kts 64°
2026-05-03 22:31 33.74449 -93.60962 35039 ft 477 kts 64°
2026-05-03 22:32 33.76908 -93.52552 35038 ft 477 kts 64°
2026-05-03 22:32 33.79314 -93.44286 35040 ft 476 kts 64°
2026-05-03 22:33 33.81807 -93.35702 35035 ft 476 kts 64°
2026-05-03 22:33 33.82979 -93.31661 34901 ft 477 kts 65°
2026-05-03 22:33 33.84169 -93.27544 34980 ft 477 kts 65°
2026-05-03 22:34 33.86665 -93.18900 35026 ft 477 kts 65°
2026-05-03 22:34 33.89188 -93.10179 35034 ft 476 kts 64°
2026-05-03 22:35 33.92098 -93.01965 35023 ft 472 kts 59°
2026-05-03 22:35 33.95051 -92.94186 35022 ft 473 kts 59°
2026-05-03 22:36 33.97768 -92.86995 35019 ft 471 kts 59°
2026-05-03 22:36 34.00526 -92.79660 35028 ft 471 kts 59°
2026-05-03 22:37 34.03632 -92.71362 35026 ft 471 kts 59°
2026-05-03 22:37 34.06703 -92.63140 35023 ft 471 kts 59°
2026-05-03 22:38 34.09784 -92.54875 35018 ft 471 kts 59°
2026-05-03 22:38 34.12678 -92.47086 35019 ft 472 kts 60°
2026-05-03 22:39 34.15713 -92.38892 35020 ft 471 kts 60°
2026-05-03 22:39 34.18594 -92.31102 35020 ft 470 kts 60°
2026-05-03 22:40 34.21538 -92.23119 35018 ft 469 kts 60°
2026-05-03 22:40 34.24455 -92.15196 35016 ft 471 kts 60°
2026-05-03 22:41 34.27470 -92.06976 35023 ft 470 kts 60°
2026-05-03 22:41 34.30448 -91.98845 35023 ft 470 kts 60°
2026-05-03 22:42 34.33408 -91.90744 35025 ft 470 kts 60°
2026-05-03 22:42 34.36311 -91.82774 35028 ft 469 kts 60°
2026-05-03 22:43 34.39245 -91.74699 35026 ft 469 kts 60°
2026-05-03 22:43 34.42147 -91.66692 35032 ft 468 kts 60°
2026-05-03 22:44 34.45056 -91.58650 35027 ft 468 kts 60°
2026-05-03 22:44 34.47966 -91.50581 35031 ft 469 kts 60°
2026-05-03 22:45 34.50863 -91.42526 35029 ft 468 kts 60°
2026-05-03 22:45 34.53722 -91.34562 35028 ft 468 kts 61°
2026-05-03 22:46 34.56419 -91.27028 35021 ft 468 kts 61°
2026-05-03 22:46 34.59248 -91.19110 35015 ft 468 kts 61°
2026-05-03 22:47 34.62073 -91.11176 35016 ft 468 kts 61°
2026-05-03 22:47 34.64923 -91.03152 35019 ft 467 kts 61°
2026-05-03 22:48 34.67790 -90.95069 35025 ft 468 kts 61°
2026-05-03 22:48 34.70660 -90.86951 35024 ft 468 kts 61°
2026-05-03 22:49 34.73526 -90.78820 35021 ft 468 kts 61°
2026-05-03 22:49 34.76415 -90.70610 35019 ft 468 kts 61°
2026-05-03 22:50 34.79263 -90.62487 35022 ft 467 kts 61°
2026-05-03 22:50 34.82116 -90.54336 35032 ft 468 kts 61°
2026-05-03 22:51 34.84939 -90.46242 35036 ft 469 kts 61°
2026-05-03 22:51 34.87772 -90.38107 35038 ft 468 kts 61°
2026-05-03 22:52 34.90494 -90.30264 35040 ft 469 kts 62°
2026-05-03 22:52 34.93294 -90.22169 35041 ft 469 kts 62°
2026-05-03 22:53 34.96082 -90.14096 35048 ft 468 kts 62°
2026-05-03 22:53 34.98761 -90.05924 35050 ft 473 kts 67°
2026-05-03 22:54 35.00210 -89.97620 35061 ft 480 kts 80°
2026-05-03 22:54 35.00206 -89.88932 35063 ft 486 kts 93°
2026-05-03 22:55 34.99009 -89.79939 35060 ft 488 kts 97°
2026-05-03 22:55 34.97713 -89.71172 35057 ft 487 kts 97°
2026-05-03 22:56 34.96421 -89.62206 35061 ft 486 kts 97°
2026-05-03 22:56 34.95130 -89.53178 35069 ft 487 kts 97°
2026-05-03 22:57 34.93836 -89.44121 35064 ft 486 kts 97°
2026-05-03 22:57 34.92545 -89.35154 35065 ft 486 kts 97°
2026-05-03 22:58 34.91293 -89.26501 35059 ft 485 kts 97°
2026-05-03 22:58 34.90011 -89.17678 35063 ft 485 kts 97°
2026-05-03 22:59 34.88747 -89.09032 35064 ft 486 kts 97°
2026-05-03 22:59 34.87451 -89.00216 35071 ft 485 kts 97°
2026-05-03 23:00 34.86150 -88.91414 35064 ft 486 kts 97°
2026-05-03 23:00 34.84871 -88.82791 35061 ft 486 kts 97°
2026-05-03 23:01 34.83560 -88.73995 35057 ft 485 kts 97°
2026-05-03 23:01 34.82229 -88.65117 35060 ft 485 kts 98°
2026-05-03 23:02 34.80923 -88.56451 35063 ft 485 kts 98°
2026-05-03 23:02 34.79605 -88.47765 35066 ft 485 kts 97°
2026-05-03 23:03 34.78263 -88.38949 35062 ft 486 kts 98°
2026-05-03 23:03 34.76926 -88.30203 35064 ft 486 kts 98°
2026-05-03 23:04 34.75603 -88.21603 35065 ft 485 kts 98°
2026-05-03 23:04 34.74240 -88.12788 35063 ft 486 kts 98°
2026-05-03 23:05 34.72870 -88.03954 35065 ft 485 kts 98°
2026-05-03 23:05 34.71469 -87.94985 35068 ft 485 kts 98°
2026-05-03 23:06 34.70075 -87.86094 35067 ft 486 kts 98°
2026-05-03 23:06 34.68692 -87.77323 35073 ft 486 kts 99°
2026-05-03 23:07 34.67342 -87.68808 35077 ft 485 kts 98°
2026-05-03 23:07 34.65990 -87.60299 35080 ft 485 kts 98°
2026-05-03 23:08 34.64601 -87.51604 35077 ft 484 kts 99°
2026-05-03 23:08 34.63251 -87.43201 35075 ft 484 kts 99°
2026-05-03 23:09 34.61798 -87.35052 35072 ft 484 kts 101°
2026-05-03 23:09 34.61043 -87.31012 34968 ft 485 kts 101°
2026-05-03 23:09 34.60263 -87.26827 34722 ft 484 kts 101°
2026-05-03 23:09 34.59458 -87.22488 34474 ft 484 kts 101°
2026-05-03 23:10 34.58659 -87.18162 34193 ft 484 kts 101°
2026-05-03 23:10 34.57848 -87.13775 33898 ft 485 kts 101°
2026-05-03 23:10 34.57019 -87.09290 33595 ft 484 kts 101°
2026-05-03 23:10 34.56221 -87.04723 33289 ft 484 kts 100°
2026-05-03 23:11 34.55463 -87.00259 33098 ft 484 kts 99°
2026-05-03 23:11 34.53721 -86.91260 33092 ft 485 kts 105°
2026-05-03 23:12 34.51560 -86.82902 33090 ft 486 kts 106°
2026-05-03 23:12 34.49363 -86.74525 32767 ft 476 kts 106°
2026-05-03 23:12 34.48266 -86.70316 32475 ft 474 kts 106°
2026-05-03 23:13 34.47132 -86.65976 32172 ft 474 kts 106°
2026-05-03 23:13 34.45998 -86.61652 31873 ft 474 kts 106°
2026-05-03 23:13 34.44865 -86.57326 31573 ft 474 kts 106°
2026-05-03 23:13 34.43742 -86.53048 31279 ft 474 kts 106°
2026-05-03 23:14 34.42614 -86.48757 30983 ft 474 kts 106°
2026-05-03 23:14 34.41479 -86.44446 30686 ft 474 kts 106°
2026-05-03 23:14 34.40361 -86.40213 30400 ft 474 kts 106°
2026-05-03 23:14 34.39204 -86.35832 30092 ft 474 kts 106°
2026-05-03 23:15 34.38137 -86.31792 29814 ft 474 kts 107°
2026-05-03 23:15 34.37044 -86.27663 29529 ft 475 kts 107°
2026-05-03 23:15 34.35920 -86.23424 29232 ft 473 kts 107°
2026-05-03 23:15 34.34775 -86.19116 28935 ft 470 kts 107°
2026-05-03 23:16 34.33649 -86.14887 28637 ft 468 kts 107°
2026-05-03 23:16 34.32524 -86.10584 28331 ft 466 kts 107°
2026-05-03 23:16 34.31424 -86.06329 28032 ft 464 kts 106°
2026-05-03 23:16 34.30305 -86.02003 27574 ft 462 kts 107°
2026-05-03 23:17 34.29227 -85.97839 27052 ft 458 kts 107°
2026-05-03 23:17 34.28141 -85.93659 26520 ft 454 kts 106°
2026-05-03 23:17 34.27072 -85.89549 25968 ft 450 kts 107°
2026-05-03 23:17 34.26023 -85.85519 25415 ft 447 kts 107°
2026-05-03 23:18 34.24970 -85.81486 24877 ft 442 kts 107°
2026-05-03 23:18 34.23942 -85.77554 24347 ft 438 kts 107°
2026-05-03 23:18 34.22908 -85.73605 23806 ft 435 kts 107°
2026-05-03 23:18 34.21924 -85.69856 23295 ft 431 kts 107°
2026-05-03 23:19 34.20892 -85.65928 22764 ft 427 kts 107°
2026-05-03 23:19 34.19881 -85.62087 22223 ft 424 kts 107°
2026-05-03 23:19 34.18863 -85.58222 21685 ft 420 kts 107°
2026-05-03 23:19 34.17860 -85.54417 21144 ft 417 kts 107°
2026-05-03 23:20 34.16877 -85.50695 20619 ft 413 kts 107°
2026-05-03 23:20 34.15890 -85.46961 20090 ft 410 kts 107°
2026-05-03 23:20 34.14912 -85.43270 19557 ft 406 kts 107°
2026-05-03 23:20 34.13935 -85.39584 19031 ft 402 kts 107°
2026-05-03 23:21 34.13014 -85.36062 18524 ft 399 kts 106°
2026-05-03 23:21 34.12147 -85.32709 18029 ft 397 kts 107°
2026-05-03 23:21 34.11282 -85.29357 17540 ft 394 kts 107°
2026-05-03 23:21 34.10399 -85.25942 17046 ft 391 kts 107°
2026-05-03 23:22 34.08613 -85.19055 16021 ft 386 kts 107°
2026-05-03 23:22 34.07732 -85.15673 15520 ft 383 kts 107°
2026-05-03 23:22 34.06886 -85.12433 15036 ft 381 kts 107°
2026-05-03 23:23 34.05966 -85.08910 14493 ft 378 kts 107°
2026-05-03 23:23 34.04897 -85.05863 14046 ft 373 kts 120°
2026-05-03 23:23 34.03188 -85.03180 13978 ft 371 kts 132°
2026-05-03 23:23 34.01300 -85.00491 13726 ft 369 kts 128°
2026-05-03 23:24 33.99536 -84.97762 13449 ft 367 kts 128°
2026-05-03 23:24 33.97802 -84.95068 13177 ft 365 kts 128°
2026-05-03 23:24 33.96081 -84.92424 12903 ft 363 kts 128°
2026-05-03 23:24 33.94338 -84.89773 12630 ft 362 kts 128°
2026-05-03 23:25 33.92623 -84.87179 12359 ft 360 kts 128°
2026-05-03 23:25 33.90909 -84.84595 12090 ft 358 kts 128°
2026-05-03 23:25 33.89282 -84.82143 12004 ft 358 kts 128°
2026-05-03 23:25 33.87730 -84.79808 12000 ft 358 kts 128°
2026-05-03 23:26 33.86100 -84.77359 12002 ft 359 kts 128°
2026-05-03 23:26 33.84446 -84.74876 11999 ft 359 kts 128°
2026-05-03 23:26 33.82800 -84.72405 11989 ft 358 kts 128°
2026-05-03 23:26 33.81154 -84.69938 11991 ft 356 kts 128°
2026-05-03 23:27 33.79586 -84.67590 11985 ft 337 kts 128°
2026-05-03 23:27 33.78077 -84.65331 11978 ft 319 kts 128°
2026-05-03 23:27 33.76650 -84.63197 11977 ft 302 kts 128°
2026-05-03 23:27 33.75338 -84.61235 11975 ft 286 kts 128°
2026-05-03 23:28 33.74221 -84.59238 11969 ft 270 kts 115°
2026-05-03 23:28 33.73516 -84.57069 11982 ft 265 kts 102°
2026-05-03 23:28 33.73225 -84.54845 11988 ft 263 kts 90°
2026-05-03 23:28 33.73209 -84.52540 11995 ft 263 kts 86°
2026-05-03 23:29 33.73243 -84.50249 11990 ft 262 kts 86°
2026-05-03 23:29 33.73269 -84.47989 11849 ft 259 kts 86°
2026-05-03 23:29 33.73281 -84.45776 11467 ft 260 kts 87°
2026-05-03 23:29 33.73285 -84.43540 11116 ft 259 kts 87°
2026-05-03 23:30 33.73287 -84.41376 10786 ft 258 kts 87°
2026-05-03 23:30 33.73288 -84.39220 10465 ft 256 kts 87°
2026-05-03 23:30 33.73288 -84.37081 10159 ft 254 kts 86°
2026-05-03 23:30 33.73287 -84.34936 9839 ft 252 kts 87°
2026-05-03 23:31 33.73286 -84.32825 9532 ft 250 kts 87°
2026-05-03 23:31 33.73285 -84.30750 9222 ft 249 kts 87°
2026-05-03 23:31 33.73288 -84.28639 8891 ft 248 kts 87°
2026-05-03 23:31 33.73291 -84.26552 8570 ft 246 kts 87°
2026-05-03 23:32 33.73295 -84.24466 8254 ft 245 kts 88°
2026-05-03 23:32 33.73298 -84.22407 7943 ft 244 kts 88°
2026-05-03 23:32 33.73299 -84.20348 7645 ft 242 kts 88°
2026-05-03 23:32 33.73300 -84.18312 7344 ft 241 kts 88°
2026-05-03 23:33 33.73301 -84.16287 7037 ft 239 kts 88°
2026-05-03 23:33 33.73302 -84.14277 6740 ft 237 kts 88°
2026-05-03 23:33 33.73286 -84.12260 6436 ft 237 kts 94°
2026-05-03 23:33 33.72742 -84.10362 6078 ft 238 kts 127°
2026-05-03 23:34 33.71420 -84.09106 5743 ft 235 kts 161°
2026-05-03 23:34 33.69808 -84.08626 5429 ft 233 kts 172°
2026-05-03 23:34 33.68175 -84.08334 5111 ft 233 kts 174°
2026-05-03 23:34 33.66513 -84.08114 4791 ft 231 kts 183°
2026-05-03 23:35 33.64960 -84.08664 4439 ft 226 kts 218°
2026-05-03 23:35 33.63958 -84.10168 4101 ft 218 kts 254°
2026-05-03 23:35 33.63899 -84.11975 3984 ft 213 kts 285°
2026-05-03 23:35 33.64348 -84.13758 3999 ft 215 kts 289°
2026-05-03 23:36 33.64740 -84.15549 3981 ft 216 kts 281°
2026-05-03 23:36 33.64908 -84.17395 3974 ft 214 kts 275°
2026-05-03 23:36 33.64970 -84.19218 3961 ft 213 kts 273°
2026-05-03 23:36 33.64986 -84.21004 3968 ft 213 kts 272°
2026-05-03 23:37 33.64984 -84.22797 3856 ft 214 kts 271°
2026-05-03 23:37 33.64977 -84.24592 3630 ft 211 kts 271°
2026-05-03 23:37 33.64970 -84.26323 3412 ft 202 kts 271°
2026-05-03 23:37 33.64965 -84.27999 3120 ft 197 kts 272°
2026-05-03 23:38 33.64962 -84.29599 2868 ft 187 kts 271°
2026-05-03 23:38 33.64960 -84.31091 2596 ft 171 kts 271°
2026-05-03 23:38 33.64959 -84.32443 2354 ft 155 kts 271°
2026-05-03 23:38 33.64957 -84.33672 2143 ft 140 kts 271°
2026-05-03 23:39 33.64957 -84.34843 1986 ft 139 kts 271°
2026-05-03 23:39 33.64955 -84.36001 1826 ft 138 kts 270°
2026-05-03 23:39 33.64951 -84.37147 1661 ft 138 kts 271°
2026-05-03 23:39 33.64957 -84.38304 1460 ft 139 kts 271°
2026-05-03 23:40 33.64960 -84.39458 1297 ft 138 kts 270°
2026-05-03 23:40 33.64955 -84.40606 1114 ft 138 kts 270°
2026-05-03 23:40 33.64951 -84.41727 1011 ft 124 kts 270°
2026-05-03 23:40 33.64953 -84.42572 1015 ft 77 kts 270°
2026-05-03 23:41 33.64951 -84.43012 1020 ft 36 kts 265°
2026-05-03 23:41 33.64883 -84.43276 1023 ft 31 kts 244°
2026-05-03 23:41 33.64836 -84.43494 1024 ft 20 kts 246°
2026-05-03 23:41 33.64733 -84.43595 1026 ft 18 kts 206°
2026-05-03 23:42 33.64621 -84.43665 1027 ft 17 kts 210°
2026-05-03 23:42 33.64508 -84.43749 1023 ft 19 kts 213°
2026-05-03 23:42 33.64384 -84.43788 1023 ft 14 kts 180°
2026-05-03 23:42 33.64302 -84.43789 1023 ft 10 kts 181°
2026-05-03 23:43 33.64266 -84.43800 1023 ft 4 kts 245°
2026-05-03 23:43 33.64263 -84.43844 1023 ft 5 kts 270°
2026-05-03 23:43 33.64263 -84.43861 1023 ft 0 kts 270°